ES'HAIL 2 (43700 NORAD) Tracking and Keplerian Element Data

This shows tracking and keplerian element data for the satellite.

Feedback or suggestion? Click here.




ElementValue
Catalog43700
NameES'HAIL 2
Epoch Orbit81
Epoch Day21.59305765
Epoch Year2019
RAAN108.8935
Inclination0.0167
Eccentricity0.0001215
Argument of Perigee197.7222
Mean Anonmoly53.3522
Mean Motion1.00269028
Decay Rate1.38E-06
L11 43700U 18090A 19021.59305765 .00000138 00000-0 00000+0 0 9996
L22 43700 0.0167 108.8935 0001215 197.7222 53.3522 1.00269028 810

Live tracking and technical data element details for ES'HAIL 2 (NORAD 43700). ES'HAIL 2 can be tracked NOW for your location showing map with azimuth and elevation plus other details from your city location.

Track the satellite on the map from your city or location and see movement details for azimuth, elevation, latitude, longitude, range, height, and movement on the map or in text.







IsCatalogInMostPopularTable: catalog: 43700, numindb: 2098
Update: records affected: 1



GetName: 43700 ES'HAIL 2

Hit Count: updated at: Wed, 23 Jan 2019 02:41:05 GMT